Time,TemperatureF,DewpointF,PressureIn,WindDirection,WindDirectionDegrees,WindSpeedMPH,WindSpeedGustMPH,Humidity,HourlyPrecipIn,Conditions,Clouds,dailyrainin,SoftwareType,DateUTC
2013-04-30 00:00:00,48.6,46.1,30.23,ESE,115,0.0,2.0,91,0.00,,,0.00,Wunderground v.1.15,2013-04-30 04:00:00,
2013-04-30 00:05:00,48.5,46.0,30.23,East,97,0.0,2.0,91,0.00,,,0.00,Wunderground v.1.15,2013-04-30 04:05:00,
2013-04-30 00:10:00,48.5,46.0,30.23,East,97,0.0,1.0,91,0.00,,,0.01,Wunderground v.1.15,2013-04-30 04:10:00,
2013-04-30 00:15:00,48.4,45.9,30.23,East,96,0.0,1.0,91,0.00,,,0.01,Wunderground v.1.15,2013-04-30 04:15:00,
2013-04-30 00:20:00,48.3,46.1,30.23,East,94,0.0,1.0,92,0.00,,,0.01,Wunderground v.1.15,2013-04-30 04:20:00,
2013-04-30 00:30:00,48.2,46.0,30.23,SE,137,0.0,1.0,92,0.00,,,0.01,Wunderground v.1.15,2013-04-30 04:30:00,
2013-04-30 00:35:00,48.2,47.1,30.23,SE,135,0.0,1.0,96,0.00,,,0.01,Wunderground v.1.15,2013-04-30 04:35:00,
2013-04-30 00:40:00,48.2,47.1,30.23,East,93,0.0,1.0,96,0.00,,,0.01,Wunderground v.1.15,2013-04-30 04:40:00,
2013-04-30 00:45:00,48.2,46.0,30.23,ESE,105,0.0,1.0,92,0.00,,,0.01,Wunderground v.1.15,2013-04-30 04:45:00,
2013-04-30 00:50:00,48.2,46.0,30.23,SE,125,0.0,1.0,92,0.00,,,0.01,Wunderground v.1.15,2013-04-30 04:50:00,
2013-04-30 00:55:00,48.3,46.1,30.23,East,85,0.0,1.0,92,0.00,,,0.01,Wunderground v.1.15,2013-04-30 04:55:00,
2013-04-30 01:00:00,48.3,46.1,30.23,SE,135,0.0,1.0,92,0.00,,,0.01,Wunderground v.1.15,2013-04-30 05:00:00,
2013-04-30 01:10:00,48.3,46.1,30.22,SSE,149,0.0,1.0,92,0.00,,,0.01,Wunderground v.1.15,2013-04-30 05:10:00,
2013-04-30 01:15:00,48.3,45.8,30.22,SE,138,0.0,1.0,91,0.00,,,0.01,Wunderground v.1.15,2013-04-30 05:15:00,
2013-04-30 01:20:00,48.3,45.5,30.22,SE,146,1.0,1.0,90,0.00,,,0.01,Wunderground v.1.15,2013-04-30 05:20:00,
2013-04-30 01:25:00,48.3,45.5,30.22,South,173,1.0,1.0,90,0.00,,,0.01,Wunderground v.1.15,2013-04-30 05:25:00,
2013-04-30 01:30:00,48.2,45.4,30.22,SSE,147,1.0,1.0,90,0.00,,,0.01,Wunderground v.1.15,2013-04-30 05:30:00,
2013-04-30 01:35:00,48.2,44.8,30.22,SSE,167,1.0,1.0,88,0.00,,,0.01,Wunderground v.1.15,2013-04-30 05:35:00,
2013-04-30 01:45:00,48.3,44.3,30.22,ESE,119,0.0,1.0,86,0.00,,,0.01,Wunderground v.1.15,2013-04-30 05:45:00,
2013-04-30 01:50:00,48.3,44.0,30.22,SE,138,1.0,1.0,85,0.00,,,0.01,Wunderground v.1.15,2013-04-30 05:50:00,
2013-04-30 01:55:00,48.5,44.2,30.22,SSE,162,1.0,1.0,85,0.00,,,0.01,Wunderground v.1.15,2013-04-30 05:55:00,
2013-04-30 02:00:00,48.5,44.2,30.22,NE,44,0.0,1.0,85,0.00,,,0.01,Wunderground v.1.15,2013-04-30 06:00:00,
2013-04-30 02:05:00,48.5,43.9,30.22,SE,136,1.0,1.0,84,0.00,,,0.01,Wunderground v.1.15,2013-04-30 06:05:00,
2013-04-30 02:10:00,48.6,44.0,30.22,SE,146,0.0,1.0,84,0.00,,,0.01,Wunderground v.1.15,2013-04-30 06:10:00,
2013-04-30 02:15:00,48.7,44.1,30.22,SE,130,0.0,1.0,84,0.00,,,0.01,Wunderground v.1.15,2013-04-30 06:15:00,
2013-04-30 02:25:00,48.7,43.8,30.22,SE,138,0.0,1.0,83,0.00,,,0.01,Wunderground v.1.15,2013-04-30 06:25:00,
2013-04-30 02:30:00,48.8,43.9,30.22,SSE,160,0.0,1.0,83,0.00,,,0.01,Wunderground v.1.15,2013-04-30 06:30:00,
2013-04-30 02:35:00,48.8,43.5,30.22,SE,144,0.0,1.0,82,0.00,,,0.01,Wunderground v.1.15,2013-04-30 06:35:00,
2013-04-30 02:40:00,48.9,43.6,30.22,SE,141,1.0,1.0,82,0.00,,,0.01,Wunderground v.1.15,2013-04-30 06:40:00,
2013-04-30 02:45:00,49.0,43.4,30.22,SE,142,1.0,1.0,81,0.00,,,0.01,Wunderground v.1.15,2013-04-30 06:45:00,
2013-04-30 02:50:00,49.0,43.7,30.22,ESE,104,1.0,1.0,82,0.00,,,0.01,Wunderground v.1.15,2013-04-30 06:50:00,
2013-04-30 02:55:00,49.0,43.4,30.22,ESE,121,0.0,1.0,81,0.00,,,0.01,Wunderground v.1.15,2013-04-30 06:55:00,
2013-04-30 03:00:00,49.0,43.1,30.22,South,169,0.0,1.0,80,0.00,,,0.01,Wunderground v.1.15,2013-04-30 07:00:00,
2013-04-30 03:10:00,49.2,43.3,30.23,SE,132,1.0,1.0,80,0.00,,,0.01,Wunderground v.1.15,2013-04-30 07:10:00,
2013-04-30 03:15:00,49.2,43.3,30.23,ESE,105,0.0,1.0,80,0.00,,,0.01,Wunderground v.1.15,2013-04-30 07:15:00,
2013-04-30 03:20:00,49.1,43.5,30.23,ESE,105,0.0,1.0,81,0.00,,,0.01,Wunderground v.1.15,2013-04-30 07:20:00,
2013-04-30 03:25:00,49.1,43.2,30.23,SE,125,0.0,1.0,80,0.00,,,0.01,Wunderground v.1.15,2013-04-30 07:25:00,
2013-04-30 03:30:00,49.1,43.5,30.24,SE,125,0.0,1.0,81,0.00,,,0.01,Wunderground v.1.15,2013-04-30 07:30:00,
2013-04-30 03:35:00,49.1,43.5,30.23,East,99,0.0,1.0,81,0.00,,,0.01,Wunderground v.1.15,2013-04-30 07:35:00,
2013-04-30 03:40:00,49.1,43.8,30.24,SSW,211,0.0,1.0,82,0.00,,,0.01,Wunderground v.1.15,2013-04-30 07:40:00,
2013-04-30 03:50:00,49.0,43.4,30.24,South,188,0.0,1.0,81,0.00,,,0.01,Wunderground v.1.15,2013-04-30 07:50:00,
2013-04-30 03:55:00,49.1,43.5,30.24,South,188,0.0,1.0,81,0.00,,,0.01,Wunderground v.1.15,2013-04-30 07:55:00,
2013-04-30 04:00:00,49.1,43.5,30.24,South,188,0.0,1.0,81,0.00,,,0.01,Wunderground v.1.15,2013-04-30 08:00:00,
2013-04-30 04:05:00,49.0,43.4,30.24,South,188,0.0,1.0,81,0.00,,,0.01,Wunderground v.1.15,2013-04-30 08:05:00,
2013-04-30 04:10:00,49.0,43.4,30.24,South,188,0.0,1.0,81,0.00,,,0.01,Wunderground v.1.15,2013-04-30 08:10:00,
2013-04-30 04:20:00,48.8,42.9,30.24,ESE,116,0.0,0.0,80,0.00,,,0.01,Wunderground v.1.15,2013-04-30 08:20:00,
2013-04-30 04:25:00,48.7,42.8,30.24,ESE,117,0.0,0.0,80,0.00,,,0.01,Wunderground v.1.15,2013-04-30 08:25:00,
2013-04-30 04:30:00,48.6,42.4,30.25,ESE,117,0.0,0.0,79,0.00,,,0.01,Wunderground v.1.15,2013-04-30 08:30:00,
2013-04-30 04:35:00,48.5,42.6,30.25,ESE,117,0.0,0.0,80,0.00,,,0.01,Wunderground v.1.15,2013-04-30 08:35:00,
2013-04-30 04:45:00,48.3,42.4,30.25,ESE,117,0.0,0.0,80,0.00,,,0.01,Wunderground v.1.15,2013-04-30 08:45:00,
2013-04-30 04:55:00,48.1,42.2,30.25,ESE,117,0.0,0.0,80,0.00,,,0.01,Wunderground v.1.15,2013-04-30 08:55:00,
2013-04-30 05:00:00,48.0,42.1,30.25,ESE,117,0.0,0.0,80,0.00,,,0.01,Wunderground v.1.15,2013-04-30 09:00:00,
2013-04-30 05:05:00,48.0,42.1,30.25,ESE,117,0.0,5.0,80,0.00,,,0.01,Wunderground v.1.15,2013-04-30 09:05:00,
2013-04-30 05:10:00,47.9,42.0,30.25,South,173,0.0,5.0,80,0.00,,,0.01,Wunderground v.1.15,2013-04-30 09:10:00,
2013-04-30 05:15:00,48.0,42.1,30.26,South,173,0.0,5.0,80,0.00,,,0.01,Wunderground v.1.15,2013-04-30 09:15:00,
2013-04-30 05:20:00,48.0,42.1,30.26,South,173,0.0,5.0,80,0.00,,,0.01,Wunderground v.1.15,2013-04-30 09:20:00,
2013-04-30 05:30:00,47.9,42.0,30.26,South,173,0.0,5.0,80,0.00,,,0.01,Wunderground v.1.15,2013-04-30 09:30:00,
2013-04-30 05:35:00,47.9,42.0,30.26,South,173,0.0,5.0,80,0.00,,,0.01,Wunderground v.1.15,2013-04-30 09:35:00,
2013-04-30 05:40:00,47.8,41.9,30.26,South,173,0.0,5.0,80,0.00,,,0.01,Wunderground v.1.15,2013-04-30 09:40:00,
2013-04-30 05:45:00,47.7,42.2,30.26,South,173,0.0,5.0,81,0.00,,,0.01,Wunderground v.1.15,2013-04-30 09:45:00,
2013-04-30 05:50:00,47.6,42.1,30.26,South,173,0.0,5.0,81,0.00,,,0.01,Wunderground v.1.15,2013-04-30 09:50:00,
2013-04-30 05:55:00,47.6,42.4,30.27,South,173,0.0,5.0,82,0.00,,,0.01,Wunderground v.1.15,2013-04-30 09:55:00,
2013-04-30 06:05:00,47.6,42.4,30.27,South,173,0.0,5.0,82,0.00,,,0.01,Wunderground v.1.15,2013-04-30 10:05:00,
2013-04-30 06:10:00,47.7,42.8,30.27,South,173,0.0,5.0,83,0.00,,,0.01,Wunderground v.1.15,2013-04-30 10:10:00,
2013-04-30 06:15:00,47.7,42.8,30.27,South,173,0.0,5.0,83,0.00,,,0.01,Wunderground v.1.15,2013-04-30 10:15:00,
2013-04-30 06:20:00,47.8,42.9,30.27,South,173,0.0,5.0,83,0.00,,,0.01,Wunderground v.1.15,2013-04-30 10:20:00,
2013-04-30 06:25:00,47.8,42.9,30.27,South,173,0.0,5.0,83,0.00,,,0.01,Wunderground v.1.15,2013-04-30 10:25:00,
2013-04-30 06:30:00,47.9,43.0,30.28,South,173,0.0,5.0,83,0.00,,,0.01,Wunderground v.1.15,2013-04-30 10:30:00,
2013-04-30 06:40:00,48.2,43.3,30.28,South,173,0.0,5.0,83,0.00,,,0.01,Wunderground v.1.15,2013-04-30 10:40:00,
2013-04-30 06:45:00,48.3,43.4,30.28,South,173,0.0,5.0,83,0.00,,,0.01,Wunderground v.1.15,2013-04-30 10:45:00,
2013-04-30 06:50:00,48.5,43.6,30.29,SSE,150,0.0,5.0,83,0.00,,,0.01,Wunderground v.1.15,2013-04-30 10:50:00,
2013-04-30 06:55:00,48.6,43.4,30.29,SSE,150,0.0,5.0,82,0.00,,,0.01,Wunderground v.1.15,2013-04-30 10:55:00,
2013-04-30 07:00:00,48.8,43.2,30.29,SSE,150,0.0,5.0,81,0.00,,,0.01,Wunderground v.1.15,2013-04-30 11:00:00,
2013-04-30 07:05:00,49.0,43.1,30.29,SSE,150,0.0,5.0,80,0.00,,,0.01,Wunderground v.1.15,2013-04-30 11:05:00,
2013-04-30 07:10:00,49.1,43.5,30.30,SSE,150,0.0,5.0,81,0.00,,,0.01,Wunderground v.1.15,2013-04-30 11:10:00,
2013-04-30 07:20:00,49.5,43.9,30.30,SE,125,0.0,5.0,81,0.00,,,0.01,Wunderground v.1.15,2013-04-30 11:20:00,
2013-04-30 07:25:00,49.6,44.0,30.30,South,172,0.0,5.0,81,0.00,,,0.01,Wunderground v.1.15,2013-04-30 11:25:00,
2013-04-30 07:30:00,49.9,44.0,30.30,South,172,0.0,5.0,80,0.00,,,0.01,Wunderground v.1.15,2013-04-30 11:30:00,
2013-04-30 07:35:00,50.1,43.8,30.30,SSE,155,0.0,5.0,79,0.00,,,0.01,Wunderground v.1.15,2013-04-30 11:35:00,
2013-04-30 07:40:00,50.3,44.0,30.30,SSE,155,0.0,5.0,79,0.00,,,0.01,Wunderground v.1.15,2013-04-30 11:40:00,
2013-04-30 07:45:00,50.5,43.9,30.30,SSE,157,0.0,5.0,78,0.00,,,0.01,Wunderground v.1.15,2013-04-30 11:45:00,
2013-04-30 07:50:00,50.6,43.7,30.30,SSE,157,1.0,5.0,77,0.00,,,0.01,Wunderground v.1.15,2013-04-30 11:50:00,
2013-04-30 08:00:00,51.1,44.5,30.30,SSE,157,0.0,5.0,78,0.00,,,0.01,Wunderground v.1.15,2013-04-30 12:00:00,
2013-04-30 08:05:00,51.3,44.3,30.31,SSE,157,0.0,5.0,77,0.00,,,0.01,Wunderground v.1.15,2013-04-30 12:05:00,
2013-04-30 08:10:00,51.5,44.5,30.31,SSE,157,0.0,5.0,77,0.00,,,0.01,Wunderground v.1.15,2013-04-30 12:10:00,
2013-04-30 08:15:00,51.7,44.4,30.31,SSE,157,0.0,5.0,76,0.00,,,0.01,Wunderground v.1.15,2013-04-30 12:15:00,
2013-04-30 08:20:00,52.0,45.0,30.31,SSE,157,0.0,5.0,77,0.00,,,0.01,Wunderground v.1.15,2013-04-30 12:20:00,
2013-04-30 08:25:00,52.4,45.1,30.31,SSE,157,0.0,5.0,76,0.00,,,0.01,Wunderground v.1.15,2013-04-30 12:25:00,
2013-04-30 08:35:00,52.7,44.6,30.31,SSE,147,0.0,5.0,74,0.00,,,0.01,Wunderground v.1.15,2013-04-30 12:35:00,
2013-04-30 08:40:00,52.6,44.9,30.31,ESE,121,0.0,5.0,75,0.00,,,0.01,Wunderground v.1.15,2013-04-30 12:40:00,
2013-04-30 08:45:00,52.8,45.4,30.31,ESE,121,0.0,5.0,76,0.00,,,0.01,Wunderground v.1.15,2013-04-30 12:45:00,
2013-04-30 08:50:00,53.1,46.1,30.31,SSE,165,0.0,5.0,77,0.00,,,0.01,Wunderground v.1.15,2013-04-30 12:50:00,
2013-04-30 08:55:00,53.1,45.0,30.31,SSE,165,1.0,5.0,74,0.00,,,0.01,Wunderground v.1.15,2013-04-30 12:55:00,
2013-04-30 09:00:00,53.4,46.4,30.31,SSE,156,0.0,5.0,77,0.00,,,0.01,Wunderground v.1.15,2013-04-30 13:00:00,
2013-04-30 09:05:00,53.7,46.0,30.31,South,169,1.0,5.0,75,0.00,,,0.01,Wunderground v.1.15,2013-04-30 13:05:00,
2013-04-30 09:15:00,54.3,46.5,30.32,SSE,147,0.0,2.0,75,0.00,,,0.01,Wunderground v.1.15,2013-04-30 13:15:00,
2013-04-30 09:20:00,54.5,47.1,30.32,SSE,150,0.0,5.0,76,0.00,,,0.01,Wunderground v.1.15,2013-04-30 13:20:00,
2013-04-30 09:25:00,54.7,46.6,30.32,SE,135,1.0,5.0,74,0.00,,,0.01,Wunderground v.1.15,2013-04-30 13:25:00,
2013-04-30 09:30:00,54.8,46.7,30.32,SSE,163,1.0,5.0,74,0.00,,,0.01,Wunderground v.1.15,2013-04-30 13:30:00,
2013-04-30 09:35:00,54.9,46.4,30.32,South,173,1.0,5.0,73,0.00,,,0.01,Wunderground v.1.15,2013-04-30 13:35:00,
2013-04-30 09:40:00,55.2,47.1,30.32,SE,138,1.0,1.0,74,0.00,,,0.01,Wunderground v.1.15,2013-04-30 13:40:00,
2013-04-30 09:45:00,55.6,46.0,30.32,South,172,1.0,4.0,70,0.00,,,0.01,Wunderground v.1.15,2013-04-30 13:45:00,
2013-04-30 09:55:00,56.3,47.0,30.32,South,170,1.0,4.0,71,0.00,,,0.01,Wunderground v.1.15,2013-04-30 13:55:00,
2013-04-30 10:00:00,56.5,46.1,30.32,SE,140,2.0,2.0,68,0.00,,,0.01,Wunderground v.1.15,2013-04-30 14:00:00,
2013-04-30 10:05:00,57.1,43.8,30.32,SE,129,2.0,5.0,61,0.00,,,0.01,Wunderground v.1.15,2013-04-30 14:05:00,
2013-04-30 10:10:00,57.7,43.0,30.32,South,180,2.0,10.0,58,0.00,,,0.01,Wunderground v.1.15,2013-04-30 14:10:00,
2013-04-30 10:15:00,57.8,42.7,30.32,SSE,163,3.0,10.0,57,0.00,,,0.01,Wunderground v.1.15,2013-04-30 14:15:00,
2013-04-30 10:20:00,58.6,42.0,30.31,SSE,165,2.0,2.0,54,0.00,,,0.01,Wunderground v.1.15,2013-04-30 14:20:00,
2013-04-30 10:30:00,59.7,40.5,30.31,SSE,148,2.0,2.0,49,0.00,,,0.01,Wunderground v.1.15,2013-04-30 14:30:00,
2013-04-30 10:35:00,60.4,42.2,30.31,SSE,151,2.0,5.0,51,0.00,,,0.01,Wunderground v.1.15,2013-04-30 14:35:00,
2013-04-30 10:40:00,60.7,39.8,30.31,SSE,147,3.0,5.0,46,0.00,,,0.01,Wunderground v.1.15,2013-04-30 14:40:00,
2013-04-30 10:45:00,60.4,41.1,30.31,South,172,4.0,6.0,49,0.00,,,0.01,Wunderground v.1.15,2013-04-30 14:45:00,
2013-04-30 10:50:00,60.4,42.7,30.31,South,178,4.0,5.0,52,0.00,,,0.01,Wunderground v.1.15,2013-04-30 14:50:00,
2013-04-30 10:55:00,60.9,40.0,30.31,SSE,163,3.0,5.0,46,0.00,,,0.01,Wunderground v.1.15,2013-04-30 14:55:00,
2013-04-30 11:00:00,61.3,41.4,30.31,SSE,155,2.0,5.0,48,0.00,,,0.01,Wunderground v.1.15,2013-04-30 15:00:00,
2013-04-30 11:10:00,62.0,39.2,30.30,SE,126,2.0,5.0,43,0.00,,,0.01,Wunderground v.1.15,2013-04-30 15:10:00,
2013-04-30 11:15:00,61.6,39.5,30.30,South,178,3.0,5.0,44,0.00,,,0.01,Wunderground v.1.15,2013-04-30 15:15:00,
2013-04-30 11:20:00,61.5,38.8,30.31,South,173,4.0,7.0,43,0.00,,,0.01,Wunderground v.1.15,2013-04-30 15:20:00,
2013-04-30 11:25:00,61.8,39.1,30.30,South,180,3.0,7.0,43,0.00,,,0.01,Wunderground v.1.15,2013-04-30 15:25:00,
2013-04-30 11:30:00,62.2,40.6,30.30,SE,127,3.0,3.0,45,0.00,,,0.01,Wunderground v.1.15,2013-04-30 15:30:00,
2013-04-30 11:35:00,62.4,40.2,30.30,South,180,3.0,8.0,44,0.00,,,0.01,Wunderground v.1.15,2013-04-30 15:35:00,
2013-04-30 11:40:00,62.1,42.2,30.30,South,175,4.0,5.0,48,0.00,,,0.01,Wunderground v.1.15,2013-04-30 15:40:00,
2013-04-30 11:45:00,62.0,42.1,30.30,South,169,5.0,5.0,48,0.00,,,0.01,Wunderground v.1.15,2013-04-30 15:45:00,
2013-04-30 11:55:00,63.0,46.1,30.30,South,175,3.0,7.0,54,0.00,,,0.01,Wunderground v.1.15,2013-04-30 15:55:00,
2013-04-30 12:00:00,63.6,45.6,30.29,SSW,193,3.0,3.0,52,0.00,,,0.01,Wunderground v.1.15,2013-04-30 16:00:00,
2013-04-30 12:05:00,64.5,44.4,30.29,South,187,3.0,5.0,48,0.00,,,0.01,Wunderground v.1.15,2013-04-30 16:05:00,
2013-04-30 12:10:00,65.0,45.4,30.29,SSE,167,3.0,5.0,49,0.00,,,0.01,Wunderground v.1.15,2013-04-30 16:10:00,
2013-04-30 12:15:00,64.5,44.4,30.29,South,176,3.0,5.0,48,0.00,,,0.01,Wunderground v.1.15,2013-04-30 16:15:00,
2013-04-30 12:20:00,64.4,44.3,30.29,South,173,3.0,3.0,48,0.00,,,0.01,Wunderground v.1.15,2013-04-30 16:20:00,
2013-04-30 12:30:00,64.7,44.5,30.29,South,186,3.0,10.0,48,0.00,,,0.01,Wunderground v.1.15,2013-04-30 16:30:00,
2013-04-30 12:35:00,64.3,45.8,30.29,South,173,4.0,10.0,51,0.00,,,0.01,Wunderground v.1.15,2013-04-30 16:35:00,
2013-04-30 12:40:00,64.5,47.0,30.28,East,101,4.0,4.0,53,0.00,,,0.01,Wunderground v.1.15,2013-04-30 16:40:00,
2013-04-30 12:45:00,65.3,46.7,30.28,SE,139,2.0,5.0,51,0.00,,,0.01,Wunderground v.1.15,2013-04-30 16:45:00,
2013-04-30 12:50:00,65.7,48.6,30.29,South,171,2.0,5.0,54,0.00,,,0.01,Wunderground v.1.15,2013-04-30 16:50:00,
2013-04-30 12:55:00,65.8,47.7,30.28,SE,129,3.0,5.0,52,0.00,,,0.01,Wunderground v.1.15,2013-04-30 16:55:00,
2013-04-30 13:00:00,66.2,49.6,30.28,ENE,75,2.0,2.0,55,0.00,,,0.01,Wunderground v.1.15,2013-04-30 17:00:00,
2013-04-30 13:10:00,67.6,48.8,30.28,SE,128,1.0,1.0,51,0.00,,,0.01,Wunderground v.1.15,2013-04-30 17:10:00,
2013-04-30 13:15:00,68.2,47.2,30.27,ENE,78,2.0,2.0,47,0.00,,,0.01,Wunderground v.1.15,2013-04-30 17:15:00,
2013-04-30 13:20:00,68.6,51.3,30.27,East,79,2.0,5.0,54,0.00,,,0.01,Wunderground v.1.15,2013-04-30 17:20:00,
2013-04-30 13:25:00,68.1,44.7,30.27,ESE,108,3.0,5.0,43,0.00,,,0.01,Wunderground v.1.15,2013-04-30 17:25:00,
2013-04-30 13:30:00,67.7,46.7,30.27,SSE,150,3.0,3.0,47,0.00,,,0.01,Wunderground v.1.15,2013-04-30 17:30:00,
2013-04-30 13:35:00,67.8,46.3,30.27,SSE,152,2.0,5.0,46,0.00,,,0.01,Wunderground v.1.15,2013-04-30 17:35:00,
2013-04-30 13:40:00,67.3,49.1,30.27,South,176,3.0,5.0,52,0.00,,,0.01,Wunderground v.1.15,2013-04-30 17:40:00,
2013-04-30 13:50:00,67.8,48.5,30.27,SSE,166,3.0,5.0,50,0.00,,,0.01,Wunderground v.1.15,2013-04-30 17:50:00,
2013-04-30 13:55:00,68.4,46.8,30.27,SSE,158,3.0,5.0,46,0.00,,,0.01,Wunderground v.1.15,2013-04-30 17:55:00,
2013-04-30 14:00:00,67.8,46.8,30.27,South,173,4.0,4.0,47,0.00,,,0.01,Wunderground v.1.15,2013-04-30 18:00:00,
2013-04-30 14:05:00,67.9,46.9,30.27,SE,129,3.0,5.0,47,0.00,,,0.01,Wunderground v.1.15,2013-04-30 18:05:00,
2013-04-30 14:10:00,68.7,47.6,30.27,ESE,115,1.0,5.0,47,0.00,,,0.01,Wunderground v.1.15,2013-04-30 18:10:00,
2013-04-30 14:15:00,69.6,49.0,30.27,SSE,168,1.0,5.0,48,0.00,,,0.01,Wunderground v.1.15,2013-04-30 18:15:00,
2013-04-30 14:25:00,69.4,47.1,30.27,SE,129,3.0,5.0,45,0.00,,,0.01,Wunderground v.1.15,2013-04-30 18:25:00,
2013-04-30 14:30:00,69.8,46.3,30.27,East,90,3.0,5.0,43,0.00,,,0.01,Wunderground v.1.15,2013-04-30 18:30:00,
2013-04-30 14:35:00,70.4,49.2,30.27,SE,142,2.0,5.0,47,0.00,,,0.01,Wunderground v.1.15,2013-04-30 18:35:00,
2013-04-30 14:40:00,70.7,48.3,30.27,SE,127,2.0,2.0,45,0.00,,,0.01,Wunderground v.1.15,2013-04-30 18:40:00,
2013-04-30 14:45:00,70.5,46.9,30.27,South,177,3.0,5.0,43,0.00,,,0.01,Wunderground v.1.15,2013-04-30 18:45:00,
2013-04-30 14:50:00,69.7,46.2,30.27,East,92,3.0,3.0,43,0.00,,,0.01,Wunderground v.1.15,2013-04-30 18:50:00,
2013-04-30 14:55:00,70.4,46.2,30.27,North,355,3.0,5.0,42,0.00,,,0.01,Wunderground v.1.15,2013-04-30 18:55:00,
2013-04-30 15:05:00,71.4,46.5,30.27,ESE,115,2.0,5.0,41,0.00,,,0.01,Wunderground v.1.15,2013-04-30 19:05:00,
2013-04-30 15:10:00,71.6,45.3,30.26,SSE,166,1.0,1.0,39,0.00,,,0.01,Wunderground v.1.15,2013-04-30 19:10:00,
2013-04-30 15:15:00,71.7,45.4,30.26,South,183,1.0,5.0,39,0.00,,,0.01,Wunderground v.1.15,2013-04-30 19:15:00,
2013-04-30 15:20:00,70.2,46.0,30.26,South,181,4.0,10.0,42,0.00,,,0.01,Wunderground v.1.15,2013-04-30 19:20:00,
2013-04-30 15:25:00,70.1,48.9,30.26,SE,137,4.0,10.0,47,0.00,,,0.01,Wunderground v.1.15,2013-04-30 19:25:00,
2013-04-30 15:30:00,70.1,46.6,30.26,SSE,163,3.0,3.0,43,0.00,,,0.01,Wunderground v.1.15,2013-04-30 19:30:00,
2013-04-30 15:35:00,69.8,45.7,30.26,South,172,4.0,5.0,42,0.00,,,0.01,Wunderground v.1.15,2013-04-30 19:35:00,
2013-04-30 15:45:00,69.9,44.5,30.26,South,180,3.0,4.0,40,0.00,,,0.01,Wunderground v.1.15,2013-04-30 19:45:00,
2013-04-30 15:50:00,70.0,43.9,30.26,South,173,3.0,5.0,39,0.00,,,0.01,Wunderground v.1.15,2013-04-30 19:50:00,
2013-04-30 15:55:00,70.9,46.0,30.26,SSE,150,2.0,5.0,41,0.00,,,0.01,Wunderground v.1.15,2013-04-30 19:55:00,
2013-04-30 16:00:00,71.4,44.5,30.26,South,178,1.0,5.0,38,0.00,,,0.01,Wunderground v.1.15,2013-04-30 20:00:00,
2013-04-30 16:05:00,71.6,45.3,30.26,South,169,2.0,5.0,39,0.00,,,0.01,Wunderground v.1.15,2013-04-30 20:05:00,
2013-04-30 16:10:00,71.0,44.8,30.26,South,173,3.0,7.0,39,0.00,,,0.01,Wunderground v.1.15,2013-04-30 20:10:00,
2013-04-30 16:20:00,70.4,46.2,30.26,SSE,165,3.0,3.0,42,0.00,,,0.01,Wunderground v.1.15,2013-04-30 20:20:00,
2013-04-30 16:30:00,70.2,44.7,30.26,East,92,4.0,4.0,40,0.00,,,0.01,Wunderground v.1.15,2013-04-30 20:30:00,
2013-04-30 16:35:00,70.7,42.4,30.26,ENE,75,3.0,5.0,36,0.00,,,0.01,Wunderground v.1.15,2013-04-30 20:35:00,
2013-04-30 16:40:00,71.1,46.2,30.26,South,170,2.0,2.0,41,0.00,,,0.01,Wunderground v.1.15,2013-04-30 20:40:00,
2013-04-30 16:45:00,70.9,44.0,30.26,South,169,3.0,3.0,38,0.00,,,0.01,Wunderground v.1.15,2013-04-30 20:45:00,
2013-04-30 16:50:00,70.3,43.5,30.26,South,177,3.0,3.0,38,0.00,,,0.01,Wunderground v.1.15,2013-04-30 20:50:00,
2013-04-30 16:55:00,70.3,44.8,30.26,South,170,2.0,5.0,40,0.00,,,0.01,Wunderground v.1.15,2013-04-30 20:55:00,
2013-04-30 17:05:00,70.9,46.0,30.26,South,173,1.0,5.0,41,0.00,,,0.01,Wunderground v.1.15,2013-04-30 21:05:00,
2013-04-30 17:10:00,70.2,43.4,30.26,SSE,163,2.0,5.0,38,0.00,,,0.01,Wunderground v.1.15,2013-04-30 21:10:00,
2013-04-30 17:15:00,69.7,42.9,30.26,SSE,151,3.0,5.0,38,0.00,,,0.01,Wunderground v.1.15,2013-04-30 21:15:00,
2013-04-30 17:20:00,69.8,42.3,30.26,ESE,122,3.0,3.0,37,0.00,,,0.01,Wunderground v.1.15,2013-04-30 21:20:00,
2013-04-30 17:25:00,69.7,41.5,30.26,South,169,2.0,5.0,36,0.00,,,0.01,Wunderground v.1.15,2013-04-30 21:25:00,
2013-04-30 17:30:00,69.6,41.5,30.26,SSE,161,2.0,2.0,36,0.00,,,0.01,Wunderground v.1.15,2013-04-30 21:30:00,
2013-04-30 17:35:00,69.9,41.7,30.26,East,82,1.0,5.0,36,0.00,,,0.01,Wunderground v.1.15,2013-04-30 21:35:00,
2013-04-30 17:45:00,69.6,42.9,30.25,South,177,1.0,5.0,38,0.00,,,0.01,Wunderground v.1.15,2013-04-30 21:45:00,
2013-04-30 17:50:00,69.4,43.4,30.26,SE,146,1.0,1.0,39,0.00,,,0.01,Wunderground v.1.15,2013-04-30 21:50:00,
2013-04-30 17:55:00,69.4,43.4,30.26,SSE,165,1.0,5.0,39,0.00,,,0.01,Wunderground v.1.15,2013-04-30 21:55:00,
2013-04-30 18:00:00,69.4,42.7,30.26,SE,126,1.0,5.0,38,0.00,,,0.01,Wunderground v.1.15,2013-04-30 22:00:00,
2013-04-30 18:05:00,69.2,41.8,30.26,SE,143,1.0,5.0,37,0.00,,,0.01,Wunderground v.1.15,2013-04-30 22:05:00,
2013-04-30 18:10:00,69.4,42.0,30.25,SE,142,1.0,1.0,37,0.00,,,0.01,Wunderground v.1.15,2013-04-30 22:10:00,
2013-04-30 18:20:00,69.7,42.9,30.26,ESE,122,0.0,5.0,38,0.00,,,0.01,Wunderground v.1.15,2013-04-30 22:20:00,
2013-04-30 18:25:00,69.7,43.6,30.25,SSE,148,1.0,5.0,39,0.00,,,0.01,Wunderground v.1.15,2013-04-30 22:25:00,
2013-04-30 18:30:00,69.7,43.6,30.25,SE,126,0.0,5.0,39,0.00,,,0.01,Wunderground v.1.15,2013-04-30 22:30:00,
2013-04-30 18:35:00,69.6,42.2,30.25,SE,142,0.0,5.0,37,0.00,,,0.01,Wunderground v.1.15,2013-04-30 22:35:00,
2013-04-30 18:40:00,69.4,42.0,30.25,SSE,147,0.0,5.0,37,0.00,,,0.01,Wunderground v.1.15,2013-04-30 22:40:00,
2013-04-30 18:45:00,68.8,42.1,30.25,SE,142,1.0,5.0,38,0.00,,,0.01,Wunderground v.1.15,2013-04-30 22:45:00,
2013-04-30 18:50:00,68.2,41.6,30.25,South,172,1.0,5.0,38,0.00,,,0.01,Wunderground v.1.15,2013-04-30 22:50:00,
2013-04-30 19:00:00,68.1,41.5,30.26,SE,136,0.0,5.0,38,0.00,,,0.01,Wunderground v.1.15,2013-04-30 23:00:00,
2013-04-30 19:05:00,67.9,41.3,30.25,South,175,1.0,5.0,38,0.00,,,0.01,Wunderground v.1.15,2013-04-30 23:05:00,
2013-04-30 19:10:00,67.5,41.0,30.25,SE,146,1.0,1.0,38,0.00,,,0.01,Wunderground v.1.15,2013-04-30 23:10:00,
2013-04-30 19:15:00,67.3,42.1,30.26,SSE,163,0.0,5.0,40,0.00,,,0.01,Wunderground v.1.15,2013-04-30 23:15:00,
2013-04-30 19:20:00,67.0,40.5,30.25,SE,143,0.0,5.0,38,0.00,,,0.01,Wunderground v.1.15,2013-04-30 23:20:00,
2013-04-30 19:25:00,66.6,40.9,30.25,South,178,0.0,5.0,39,0.00,,,0.01,Wunderground v.1.15,2013-04-30 23:25:00,
2013-04-30 19:30:00,66.1,39.7,30.26,SE,128,0.0,5.0,38,0.00,,,0.01,Wunderground v.1.15,2013-04-30 23:30:00,
2013-04-30 19:40:00,65.2,40.3,30.26,SE,137,0.0,5.0,40,0.00,,,0.01,Wunderground v.1.15,2013-04-30 23:40:00,
2013-04-30 19:45:00,64.8,39.9,30.26,SE,137,0.0,5.0,40,0.00,,,0.01,Wunderground v.1.15,2013-04-30 23:45:00,
2013-04-30 19:50:00,64.4,42.0,30.26,SE,137,0.0,5.0,44,0.00,,,0.01,Wunderground v.1.15,2013-04-30 23:50:00,
2013-04-30 19:55:00,63.9,42.1,30.26,SE,137,0.0,5.0,45,0.00,,,0.01,Wunderground v.1.15,2013-04-30 23:55:00,
2013-04-30 20:00:00,63.3,40.4,30.26,SE,137,0.0,5.0,43,0.00,,,0.01,Wunderground v.1.15,2013-05-01 00:00:00,
2013-04-30 20:10:00,62.1,39.9,30.25,SE,137,0.0,5.0,44,0.00,,,0.01,Wunderground v.1.15,2013-05-01 00:10:00,
2013-04-30 20:15:00,61.6,39.5,30.26,SE,144,0.0,5.0,44,0.00,,,0.01,Wunderground v.1.15,2013-05-01 00:15:00,
2013-04-30 20:20:00,61.2,39.7,30.26,SE,142,0.0,5.0,45,0.00,,,0.01,Wunderground v.1.15,2013-05-01 00:20:00,
2013-04-30 20:25:00,60.8,39.9,30.26,SSE,148,0.0,5.0,46,0.00,,,0.01,Wunderground v.1.15,2013-05-01 00:25:00,
2013-04-30 20:30:00,60.4,39.5,30.26,SE,137,0.0,5.0,46,0.00,,,0.01,Wunderground v.1.15,2013-05-01 00:30:00,
2013-04-30 20:35:00,60.3,38.3,30.26,SSE,152,0.0,5.0,44,0.00,,,0.01,Wunderground v.1.15,2013-05-01 00:35:00,
2013-04-30 20:40:00,60.1,39.2,30.26,SSE,164,0.0,5.0,46,0.00,,,0.01,Wunderground v.1.15,2013-05-01 00:40:00,
2013-04-30 20:50:00,59.6,38.8,30.26,SE,128,0.0,5.0,46,0.00,,,0.01,Wunderground v.1.15,2013-05-01 00:50:00,
2013-04-30 20:55:00,59.5,38.7,30.27,SSE,149,1.0,5.0,46,0.00,,,0.01,Wunderground v.1.15,2013-05-01 00:55:00,
2013-04-30 21:00:00,59.5,38.7,30.27,ESE,120,1.0,1.0,46,0.00,,,0.01,Wunderground v.1.15,2013-05-01 01:00:00,
2013-04-30 21:05:00,59.4,39.1,30.27,South,176,1.0,5.0,47,0.00,,,0.01,Wunderground v.1.15,2013-05-01 01:05:00,
2013-04-30 21:10:00,59.3,39.1,30.27,SSE,147,1.0,1.0,47,0.00,,,0.01,Wunderground v.1.15,2013-05-01 01:10:00,
2013-04-30 21:15:00,59.1,38.9,30.28,SE,136,0.0,5.0,47,0.00,,,0.01,Wunderground v.1.15,2013-05-01 01:15:00,
2013-04-30 21:20:00,59.0,39.3,30.28,ESE,105,0.0,5.0,48,0.00,,,0.01,Wunderground v.1.15,2013-05-01 01:20:00,
2013-04-30 21:30:00,58.6,39.0,30.28,SE,137,0.0,5.0,48,0.00,,,0.01,Wunderground v.1.15,2013-05-01 01:30:00,
2013-04-30 21:35:00,58.5,38.3,30.28,ESE,115,1.0,5.0,47,0.00,,,0.01,Wunderground v.1.15,2013-05-01 01:35:00,
2013-04-30 21:40:00,58.3,38.7,30.28,East,94,1.0,5.0,48,0.00,,,0.01,Wunderground v.1.15,2013-05-01 01:40:00,
2013-04-30 21:45:00,58.1,38.5,30.28,SE,132,1.0,5.0,48,0.00,,,0.01,Wunderground v.1.15,2013-05-01 01:45:00,
2013-04-30 21:50:00,57.8,38.2,30.28,ESE,123,0.0,5.0,48,0.00,,,0.01,Wunderground v.1.15,2013-05-01 01:50:00,
2013-04-30 21:55:00,57.6,37.5,30.28,SSE,163,1.0,5.0,47,0.00,,,0.01,Wunderground v.1.15,2013-05-01 01:55:00,
2013-04-30 22:05:00,57.4,37.3,30.28,ESE,121,1.0,5.0,47,0.00,,,0.01,Wunderground v.1.15,2013-05-01 02:05:00,
2013-04-30 22:10:00,57.3,36.1,30.29,SSE,149,1.0,1.0,45,0.00,,,0.01,Wunderground v.1.15,2013-05-01 02:10:00,
2013-04-30 22:15:00,57.2,36.0,30.29,SE,133,0.0,5.0,45,0.00,,,0.01,Wunderground v.1.15,2013-05-01 02:15:00,
2013-04-30 22:20:00,57.0,35.9,30.29,South,183,0.0,5.0,45,0.00,,,0.01,Wunderground v.1.15,2013-05-01 02:20:00,
2013-04-30 22:25:00,56.8,35.7,30.29,East,99,0.0,5.0,45,0.00,,,0.01,Wunderground v.1.15,2013-05-01 02:25:00,
2013-04-30 22:30:00,56.5,35.4,30.29,ESE,122,0.0,5.0,45,0.00,,,0.01,Wunderground v.1.15,2013-05-01 02:30:00,
2013-04-30 22:35:00,56.2,35.1,30.29,SE,130,0.0,5.0,45,0.00,,,0.01,Wunderground v.1.15,2013-05-01 02:35:00,
2013-04-30 22:45:00,55.8,34.2,30.29,SE,126,0.0,5.0,44,0.00,,,0.01,Wunderground v.1.15,2013-05-01 02:45:00,
2013-04-30 22:50:00,55.6,34.6,30.29,SSE,160,0.0,5.0,45,0.00,,,0.01,Wunderground v.1.15,2013-05-01 02:50:00,
2013-04-30 22:55:00,55.5,33.9,30.29,ESE,118,0.0,5.0,44,0.00,,,0.01,Wunderground v.1.15,2013-05-01 02:55:00,
2013-04-30 23:00:00,55.4,33.8,30.29,SE,131,0.0,5.0,44,0.00,,,0.01,Wunderground v.1.15,2013-05-01 03:00:00,
2013-04-30 23:05:00,55.4,33.8,30.29,SSE,150,0.0,5.0,44,0.00,,,0.01,Wunderground v.1.15,2013-05-01 03:05:00,
2013-04-30 23:10:00,55.2,33.6,30.30,SE,132,0.0,5.0,44,0.00,,,0.01,Wunderground v.1.15,2013-05-01 03:10:00,
2013-04-30 23:15:00,55.0,32.9,30.29,SE,131,0.0,5.0,43,0.00,,,0.01,Wunderground v.1.15,2013-05-01 03:15:00,
2013-04-30 23:20:00,54.9,32.8,30.29,SE,145,0.0,5.0,43,0.00,,,0.01,Wunderground v.1.15,2013-05-01 03:20:00,
2013-04-30 23:30:00,54.6,33.1,30.29,South,190,0.0,5.0,44,0.00,,,0.01,Wunderground v.1.15,2013-05-01 03:30:00,
2013-04-30 23:35:00,54.4,33.5,30.30,ESE,121,0.0,5.0,45,0.00,,,0.01,Wunderground v.1.15,2013-05-01 03:35:00,
2013-04-30 23:40:00,54.1,32.6,30.30,ESE,121,0.0,5.0,44,0.00,,,0.01,Wunderground v.1.15,2013-05-01 03:40:00,
2013-04-30 23:45:00,53.8,32.4,30.30,ESE,121,0.0,5.0,44,0.00,,,0.01,Wunderground v.1.15,2013-05-01 03:45:00,
2013-04-30 23:50:00,53.5,32.7,30.30,ESE,121,0.0,5.0,45,0.00,,,0.01,Wunderground v.1.15,2013-05-01 03:50:00,
2013-04-30 23:55:00,53.0,32.8,30.30,ESE,121,0.0,5.0,46,0.00,,,0.01,Wunderground v.1.15,2013-05-01 03:55:00,